Dewpoint
36 36 33 34 35 35 35 35 35 35 40 47 50 53 53 53 54 55 56 56 57 58 59 59 59 61 61 61 62 63 62 62 62 61 59 59 57 57 55 54 55 53 56
38 38 38 35 36 36 35 36 35 34 38 49 52 53 53 52 52 54 56 57 57 58 59 59 60 60 61 61 61 62 61 61 61 57 57 55 56 55 55 56 56 55 55
42 42 42 40 35 36 37 36 35 37 40 51 55 56 56 57 56 56 58 58 59 59 59 59 60 60 61 61 61 61 61 59 60 60 57 52 50 50 55 56 56 56 56
44 42 42 41 38 39 42 40 38 39 44 52 56 55 53 52 53 55 56 57 57 58 59 60 59 61 61 61 61 61 61 60 58 59 58 58 56 52 52 54 55 56 55
43 44 45 46 46 46 48 51 50 49 51 55 55 55 54 54 54 56 57 57 58 58 59 59 60 60 60 60 60 60 61 61 58 56 57 58 58 57 55 52 54 55 56
40 42 41 43 43 43 43 46 50 52 54 56 56 55 54 55 56 56 56 58 59 60 60 60 60 60 60 60 61 61 61 60 59 58 57 55 54 55 55 54 53 52 55
39 39 39 39 41 40 41 43 48 51 53 54 55 56 56 57 57 57 58 58 58 58 58 59 61 61 61 61 61 60 60 60 59 58 58 57 56 55 55 54 52 51 55
38 37 37 37 38 38 39 40 43 47 49 52 53 55 56 57 57 57 57 56 56 57 58 58 59 60 61 60 60 59 58 59 58 57 57 56 55 55 56 55 54 52 53
33 33 33 35 36 36 37 38 39 42 43 45 46 45 46 46 46 46 47 48 48 49 50 54 56 58 59 59 59 58 58 58 57 58 58 58 58 58 59 58 57 54 51
29 30 29 31 32 33 36 37 38 39 40 40 41 42 41 41 42 41 40 40 42 42 42 44 48 49 52 57 59 58 58 58 58 58 57 57 57 57 58 58 57 57 55
27 29 30 30 30 31 32 33 35 36 38 38 38 39 39 38 38 36 37 38 37 38 37 37 38 40 42 45 48 49 54 56 57 57 56 56 56 56 56 56 56 56 55
24 26 27 28 29 29 29 29 30 31 31 32 34 33 33 32 32 32 32 32 31 32 33 34 34 35 36 37 40 43 47 48 49 50 52 54 56 56 56 56 56 56 55
24 24 25 26 26 26 27 28 28 28 29 29 28 28 28 28 28 29 29 29 29 30 30 30 31 32 33 33 35 36 37 38 40 43 46 48 50 51 51 52 55 55 55
24 26 26 26 26 26 26 27 28 28 28 28 27 27 27 27 27 28 27 26 27 27 28 28 29 30 30 32 33 34 35 36 37 38 39 40 42 45 48 49 51 52 52
25 24 24 26 27 24 25 27 28 29 27 26 26 27 27 27 27 27 27 27 27 27 27 27 27 28 29 29 33 33 33 33 33 35 36 37 38 39 40 42 46 47 50
25 24 24 26 24 22 23 25 27 27 26 26 26 26 27 26 27 27 27 26 27 27 27 27 27 28 27 29 31 33 33 32 32 33 33 34 36 37 38 39 41 45 47
26 25 23 25 24 23 24 24 26 26 26 26 26 26 26 26 26 27 26 26 26 26 27 27 27 27 28 29 30 31 30 31 32 33 33 34 35 37 38 39 39 41 45
27 26 24 26 25 24 24 25 26 26 26 26 26 26 26 26 26 26 26 27 26 26 26 26 26 27 27 29 30 31 30 30 31 32 32 33 34 34 36 35 36 38 41
28 26 25 26 25 23 24 25 25 25 26 26 26 26 26 26 25 26 26 27 26 26 26 26 26 26 26 27 29 30 29 29 29 29 30 32 33 36 38 38 38 38 39
26 26 27 27 25 23 25 25 24 24 24 25 26 27 26 25 24 25 26 26 26 26 25 25 24 24 25 26 29 30 29 28 28 29 29 30 31 32 34 35 37 38 38
26 27 28 26 23 25 26 25 24 24 26 27 27 27 26 25 25 26 26 26 25 24 24 23 23 24 25 26 29 29 29 29 29 29 29 30 30 31 32 35 37 38 40
26 28 27 25 24 26 27 26 25 26 27 27 27 25 25 24 25 26 25 25 24 23 23 23 23 25 26 27 28 29 30 31 31 31 31 31 31 32 32 33 36 39 42
26 29 27 25 26 27 27 26 25 27 26 26 24 23 23 24 24 24 24 24 23 23 23 23 24 25 25 26 28 29 30 32 31 32 33 35 35 35 34 34 37 38 41
24 26 26 24 24 26 27 26 26 27 26 24 22 22 23 24 24 24 23 23 23 24 24 25 25 25 26 27 28 30 31 31 31 33 33 34 35 36 36 34 37 39 41
24 26 25 24 24 25 26 26 26 26 25 22 21 22 23 24 23 23 23 24 24 25 26 26 26 26 26 27 30 30 31 31 32 34 34 35 35 33 32 33 37 38 39
25 25 24 25 25 27 26 24 26 27 23 22 22 22 22 22 23 24 24 25 25 25 25 25 26 25 26 27 28 29 29 30 31 33 33 34 34 33 32 34 36 36 36
Wind_Speed
21 18 17 17 20 21 19 19 20 20 16 13 14 13 15 13 12 12 14 15 16 17 16 17 19 18 18 21 21 20 20 19 12 14 14 18 19 19 19 18 18 19 17
24 20 15 15 16 19 19 19 19 20 18 16 14 12 10 9 10 9 12 14 16 17 18 20 19 21 20 24 22 21 19 17 20 17 13 12 17 18 17 17 17 20 19
22 19 16 13 12 16 16 18 19 19 19 17 14 10 8 8 9 10 12 14 16 18 20 22 22 22 21 21 21 25 24 20 15 22 11 8 15 9 7 20 19 18 19
13 11 11 8 8 9 12 13 15 16 18 16 14 14 12 12 11 12 13 16 20 22 23 24 25 25 23 25 24 21 25 25 19 16 19 23 3 7 7 7 7 14 21
16 17 18 16 14 13 10 4 8 12 14 14 14 12 12 11 10 11 16 20 22 25 25 24 26 26 25 25 25 25 25 25 23 21 13 19 18 12 11 11 6 5 16
19 19 19 17 17 17 17 13 5 9 12 13 13 12 12 12 9 11 14 16 16 14 16 20 22 22 22 24 22 21 24 23 23 20 19 17 13 17 15 15 22 21 11
17 21 23 20 17 18 20 16 12 8 10 11 12 14 11 9 11 10 6 5 2 5 8 10 18 17 19 20 14 18 14 14 13 15 13 14 14 12 13 14 21 21 13
12 16 18 18 21 23 22 19 16 13 14 10 5 1 2 9 1 6 5 7 7 7 9 11 14 4 9 15 15 9 8 9 9 10 10 11 15 14 14 18 22 21 14
14 14 14 16 15 19 20 20 18 17 18 15 13 16 15 15 13 11 11 10 10 11 14 15 14 12 5 5 8 9 11 12 16 17 16 15 12 12 16 18 18 19 21
13 15 14 15 14 13 16 19 17 20 20 18 18 16 15 16 12 11 13 12 11 11 13 14 11 15 16 13 3 6 8 12 12 12 14 13 15 16 17 18 18 18 22
10 10 10 13 13 12 12 12 12 14 16 16 16 16 10 12 8 12 14 10 9 12 12 13 12 12 13 13 12 13 11 9 14 15 17 21 21 20 20 20 21 25 24
9 7 8 8 11 13 13 12 13 15 13 12 11 4 9 9 12 13 9 9 10 11 12 12 11 12 13 11 10 10 10 11 12 13 14 14 16 23 25 24 27 28 27
2 8 5 5 8 7 10 11 11 12 11 10 9 10 12 13 11 10 10 10 10 10 10 10 10 11 11 12 11 11 12 12 12 13 15 17 17 18 18 20 22 28 30
4 2 4 6 5 5 6 8 10 11 10 9 10 11 11 11 10 10 11 12 12 12 12 11 11 11 12 9 11 12 13 14 15 15 16 17 17 19 19 20 20 20 22
6 4 3 3 3 4 4 5 6 8 8 9 10 11 10 11 11 12 11 11 11 11 11 12 12 12 11 9 15 16 16 16 17 17 18 18 19 23 24 22 23 24 23
7 5 4 3 2 2 4 4 6 7 7 9 10 10 10 10 10 10 10 12 11 11 12 12 13 13 11 14 16 16 16 17 18 19 20 20 21 20 22 25 29 28 27
8 7 5 3 1 3 3 3 3 4 6 7 9 9 9 9 9 9 9 9 10 11 11 11 12 13 14 14 18 20 17 18 19 19 20 20 18 20 22 26 28 29 29
11 10 8 6 3 2 1 2 2 3 5 5 6 7 7 6 6 7 8 9 9 10 9 10 11 12 12 14 17 19 17 17 19 20 21 22 23 23 22 24 25 27 28
10 8 6 5 5 3 1 2 3 3 4 5 6 6 7 6 6 8 9 9 10 12 13 14 16 17 17 16 18 21 20 21 20 20 21 23 23 24 26 26 27 27 28
10 9 9 7 6 3 1 4 5 5 5 5 7 7 8 8 8 8 9 10 11 12 14 15 15 16 18 17 20 20 16 20 18 19 20 22 24 27 28 27 28 28 27
12 11 12 10 8 5 4 6 6 6 5 6 7 7 8 8 7 8 8 11 12 11 12 15 16 17 19 21 24 24 20 19 20 20 20 19 25 28 30 30 26 29 29
13 13 11 10 7 6 6 8 8 5 4 5 6 7 7 6 7 9 8 9 11 13 15 18 19 16 20 22 24 27 26 27 23 24 22 22 26 29 32 31 30 36 31
13 12 11 9 8 8 9 9 7 4 4 5 5 5 5 6 7 8 9 10 11 12 15 17 20 23 22 24 27 28 29 30 28 24 28 33 32 32 29 26 28 32 23
15 13 11 11 11 10 9 9 5 4 5 5 5 5 5 7 7 8 8 11 12 14 16 17 17 19 20 20 21 23 24 27 25 26 24 25 28 29 28 24 21 19 17
14 14 14 13 13 11 9 8 7 7 7 5 3 4 4 6 7 8 10 11 11 13 15 16 16 18 20 21 29 31 29 26 27 33 23 19 16 17 15 17 17 16 16
15 15 14 12 11 9 9 8 9 9 7 5 4 4 5 7 8 11 13 10 14 17 18 20 18 18 23 27 31 34 33 34 30 22 21 15 15 15 16 17 17 14 13
Wind_Direction
301 291 276 264 258 257 241 243 244 234 228 222 220 225 228 227 232 237 245 244 245 248 246 248 248 241 237 232 233 224 217 211 214 225 231 238 246 249 248 246 245 242 234
304 298 281 269 254 255 251 236 238 237 229 220 216 221 220 232 247 248 246 244 248 248 248 250 248 247 240 241 240 226 225 225 204 219 239 242 240 233 236 238 237 241 238
311 308 304 280 264 256 250 244 234 238 232 221 218 217 228 244 255 259 261 258 256 257 255 253 249 247 241 235 233 235 224 224 198 200 209 225 244 249 199 231 227 229 237
345 2 346 313 290 281 259 238 241 238 234 223 217 217 220 233 245 257 267 274 271 265 257 250 252 248 243 240 234 227 225 221 213 203 220 237 252 208 226 217 237 237 245
3 31 25 17 18 17 358 335 229 227 222 213 213 218 227 240 258 263 274 273 271 265 262 258 251 246 246 245 235 227 223 220 205 202 194 220 230 243 252 261 237 241 246
6 20 27 16 18 17 3 339 302 221 219 212 211 221 226 227 241 260 266 272 280 275 268 257 249 247 245 241 227 224 219 205 213 210 215 206 210 222 224 240 262 260 257
17 12 21 5 13 21 10 360 334 234 217 213 210 213 213 217 235 248 251 265 345 356 344 343 264 242 243 226 206 214 211 223 206 215 222 235 237 240 244 252 259 267 255
26 24 17 1 16 10 7 9 21 43 51 65 65 18 270 226 133 38 6 10 360 351 334 13 5 350 257 240 197 184 202 182 210 232 244 247 246 248 254 246 252 255 248
16 14 13 10 7 15 2 9 25 47 51 55 72 68 60 63 55 46 45 34 13 14 12 22 9 351 346 207 177 195 212 213 217 218 216 226 238 242 232 228 233 237 250
4 12 9 10 15 23 7 11 18 44 43 43 49 53 58 55 51 39 40 27 15 15 21 18 22 26 21 352 286 217 220 226 226 225 236 245 241 239 235 229 232 231 242
2 8 1 5 8 26 19 26 25 44 52 44 48 39 43 61 54 48 38 17 13 16 16 13 11 23 26 14 13 5 346 289 252 240 243 249 244 241 242 243 242 243 239
337 356 354 14 20 360 5 34 40 49 49 53 64 73 53 56 52 47 40 17 26 26 16 12 13 13 8 4 0 347 341 331 320 318 322 300 278 255 246 241 239 240 238
306 327 355 19 13 8 16 21 35 39 46 52 55 52 49 45 45 41 35 26 20 18 16 12 10 5 2 352 354 347 334 325 315 314 310 310 309 295 289 291 280 252 242
229 214 301 335 1 6 23 29 27 29 33 45 47 44 41 35 30 27 26 20 16 13 6 1 359 356 352 348 348 337 327 320 314 312 306 301 300 298 302 300 290 284 289
226 227 219 252 304 344 16 24 27 25 24 31 34 29 24 22 21 21 17 10 13 6 358 355 354 349 342 351 341 337 327 316 313 304 296 293 295 301 297 294 293 288 292
219 214 207 209 192 33 17 19 19 18 19 27 25 15 11 11 11 5 3 5 358 353 348 347 343 336 333 335 334 332 321 311 303 300 300 300 300 298 304 296 287 284 281
222 209 206 213 351 15 6 10 6 5 14 15 8 1 356 356 355 353 353 349 346 340 337 334 329 321 323 329 324 325 318 312 303 303 303 300 297 299 299 301 297 287 272
212 202 197 188 181 183 248 321 335 351 351 347 331 329 332 334 339 344 349 346 335 331 329 330 330 326 327 328 327 326 319 311 309 306 299 296 294 291 288 293 291 290 284
210 204 191 186 187 198 209 287 292 297 306 318 314 316 325 329 342 352 351 346 339 343 344 341 337 332 330 333 333 331 320 308 302 298 299 297 298 301 298 292 289 288 287
181 179 183 192 208 198 230 267 274 285 296 317 319 321 331 334 342 347 349 345 342 341 340 334 330 327 318 328 328 326 315 305 303 297 295 291 293 299 298 294 297 287 288
179 180 185 197 199 183 208 249 265 277 299 305 315 321 323 322 334 336 346 346 340 335 335 327 330 329 329 325 329 326 318 310 305 304 302 296 298 296 295 293 289 294 287
186 190 195 201 196 203 220 238 243 252 271 296 309 316 320 328 331 338 342 334 341 344 339 331 325 328 329 326 322 323 318 314 306 299 295 294 295 293 291 290 285 295 283
192 194 203 201 205 211 221 237 239 239 271 292 302 308 314 322 331 332 337 344 350 343 336 334 331 328 327 321 319 320 316 314 309 302 297 295 291 286 286 284 287 290 285
199 195 198 207 216 212 216 230 237 243 267 287 307 319 323 333 331 334 344 345 344 336 331 326 318 313 309 311 316 315 316 311 306 299 291 285 282 283 279 287 285 287 269
197 194 201 209 214 205 215 224 225 219 232 252 287 314 319 330 335 338 339 335 327 323 313 310 307 307 306 310 316 320 318 317 311 311 301 292 279 279 279 277 276 277 270
192 195 203 209 208 208 217 217 217 220 238 259 287 318 325 336 339 338 331 331 323 319 314 309 310 311 310 312 318 320 323 322 321 321 314 293 277 267 272 273 282 278 265